Volver al catálogo

STARLINK-37224

ActivoComunicacionesSSO
NORAD 68671·PAYLOAD·🇺🇸 United States

Lanzado Apr 11, 2026 desde Vandenberg Space Force Base

Loading…

Próximos Pases (próximas 24 horas)

TLE

ActualizadoSource: CelesTrak SupGP

Época: Sep 14, 2026, 21:13 UTC

1 68671C 26077K   26257.88451389 -.00005266  00000+0 -16357-3 0  2570
2 68671  97.2846 127.8382 0001936  93.3556 176.0637 15.33422413    16

Sigue STARLINK-37224 en tiempo real con AllMySat

Download on the App Store